FW8607 Weather Reports


time (UTC)temp
C
wind
direction
speed
KPH
gust
KPH
rain 1hr
cm
rain 24hr
cm
rain mn
cm
humidity
%
barometer
mb
20260903133019 13 135 6.4 12.9 0.00 0.00 0.00 81 1013.5
20260903130019 13 135 6.4 12.9 0.00 0.00 0.00 82 1013.5
20260903123019 13 135 6.4 12.9 0.00 0.00 0.00 85 1013.5
20260903120019 13 135 4.8 11.3 0.00 0.00 0.00 88 1013.5
20260903113018 14 135 4.8 8.0 0.00 0.00 0.00 88 1013.7
20260903110039 14 135 4.8 8.0 0.00 0.00 0.00 88 1013.8
20260903103018 14 135 4.8 9.7 0.00 0.00 0.00 88 1013.8
20260903100038 14 158 3.2 11.3 0.00 0.00 0.00 87 1013.8
20260903093019 15 113 3.2 8.0 0.00 0.00 0.00 87 1014.1
20260903090018 16 0.0 0.0 0.00 0.00 0.00 88 1014.5
20260903083018 16 0.0 0.0 0.00 0.00 0.00 87 1014.9
20260903080019 16 158 3.2 8.0 0.00 0.00 0.00 86 1015.1
20260903073018 16 135 3.2 6.4 0.00 0.00 0.00 85 1014.9
20260903070038 16 135 3.2 4.8 0.00 0.00 0.00 85 1014.9
20260903063018 17 0.0 0.0 0.00 0.00 0.00 86 1014.8
20260903060018 17 0.0 0.0 0.00 0.00 0.00 86 1015.0
20260903053018 17 0.0 3.2 0.00 0.00 0.00 84 1014.9
20260903050018 17 248 3.2 4.8 0.00 0.00 0.00 82 1014.9
20260903043018 17 248 3.2 6.4 0.00 0.00 0.00 81 1014.7
20260903040018 18 248 4.8 11.3 0.00 0.00 0.00 79 1014.5
20260903033038 18 270 6.4 12.9 0.00 0.00 0.00 77 1014.2
20260903030018 19 270 8.0 14.5 0.00 0.00 0.00 74 1013.8
20260903023018 20 248 9.7 17.7 0.00 0.00 0.00 70 1013.5
20260903020017 22 248 12.9 19.3 0.00 0.00 0.00 64 1013.6
20260903013018 23 248 11.3 20.9 0.00 0.00 0.00 60 1013.7
20260903010017 24 248 12.9 24.1 0.00 0.00 0.00 57 1013.8
20260903003039 24 248 14.5 22.5 0.00 0.00 0.00 56 1013.6
20260903000019 25 248 16.1 24.1 0.00 0.00 0.00 56 1013.8
20260902233019 25 248 14.5 27.4 0.00 0.00 0.00 55 1013.9
20260902230019 25 248 17.7 29.0 0.00 0.00 0.00 55 1014.0
20260902223019 26 248 19.3 30.6 0.00 0.00 0.00 54 1014.2
20260902220019 26 248 19.3 33.8 0.00 0.00 0.00 54 1014.3
20260902213019 26 248 20.9 35.4 0.00 0.00 0.00 52 1014.4
20260902210019 27 248 16.1 30.6 0.00 0.00 0.00 47 1014.6
20260902203019 28 248 14.5 24.1 0.00 0.00 0.00 40 1014.5
20260902200019 28 248 11.3 22.5 0.00 0.00 0.00 38 1015.1
20260902193019 28 248 11.3 25.7 0.00 0.00 0.00 41 1015.4
20260902190018 27 248 11.3 20.9 0.00 0.00 0.00 38 1015.7
20260902183018 26 248 12.9 22.5 0.00 0.00 0.00 40 1015.9
20260902180039 25 270 8.0 19.3 0.00 0.00 0.00 58 1015.8
20260902173018 24 270 3.2 14.5 0.00 0.00 0.00 63 1015.9
20260902170018 21 293 1.6 11.3 0.00 0.00 0.00 71 1015.8
20260902163018 20 293 4.8 11.3 0.00 0.00 0.00 79 1015.7
20260902160018 18 315 1.6 12.9 0.00 0.00 0.00 87 1015.8
20260902153019 17 0.0 6.4 0.00 0.00 0.00 94 1015.6
20260902150018 16 68 1.6 8.0 0.00 0.00 0.00 95 1015.7
20260902143018 15 203 1.6 4.8 0.00 0.00 0.00 95 1015.8
20260902140018 14 203 3.2 6.4 0.00 0.00 0.00 94 1015.6